Flight Briefing for CPX779

Departure Arrival
Chinggis Khaan International Airport (ZMUB)
Click to view FAA NOTAMS
Incheon International Airport (RKSI)
Click to view FAA NOTAMS
Departure Time Arrival Time
N/A N/A
Aircraft Distance
B767-300BDSF 1066nm
Departure METAR Arrival METAR
ZMUB 221200Z VRB01MPS CAVOK M10/M19 Q1025 NOSIG RMK QFE660.5 43 RKSI 221130Z 31013KT CAVOK 05/M10 Q1022 NOSIG
Suggested Route
SND A575 PIDOX V1 PAMDA A326 DONVO G597 GONAV GONAV2M


View recent IFR Routes data
Notes



Charts and Procedures

Charts for ZMUB
No chart available
Charts for RKSI
No chart available

Windy.com Weather Map